Location: ???????
(60.4260°N, 46.9069°E)
Time: 05:42:03
(UTC+00:00)

Lacrosse 5 rocket - Pass Details

Date: 30 March 2020
Orbit: 458 x 638 km, 57.0° (Epoch: 26 May)

Event Time Altitude Azimuth Distance (km) Brightness Sun altitude
Exits shadow 00:56:05 - 195° (SSW) 1,934 3.7 -10.9°
Reaches altitude 10° 00:56:49 10° 188° (S) 1,710 3.5 -10.8°
Maximum altitude 00:59:37 19° 141° (SE) 1,262 3.3 -10.5°
Drops below altitude 10° 01:02:32 10° 95° (E) 1,793 4.9 -10.2°
Sets 01:05:16 0° 78° (ENE) 2,728 6.7 -9.9°
